Location: Ferchesar
(52.6477°N, 12.4298°E)
Time: 06:50:47
(UTC+01:00)

A-11 Canister half - All Passes

Search period start: 07 December 2021 00:00
Search period end: 17 December 2021 00:00
Orbit: 1524 x 1685 km, 47.3° (Epoch: 06 December)

Date Brightness Start Highest point End Pass type
(mag) Time Alt. Az. Time Alt. Az. Time Alt. Az.
07 Dec - 01:05:06 10° SW 01:14:30 45° SSE 01:23:49 10° E visible
07 Dec - 03:08:44 10° WSW 03:18:45 65° S 03:28:33 10° E visible
07 Dec - 05:13:28 10° W 05:23:14 57° SSW 05:32:45 10° SE visible
07 Dec - 07:18:42 10° W 07:26:54 30° SW 07:34:53 10° SSE visible
07 Dec - 22:43:48 10° SSE 22:49:48 18° SE 22:55:47 10° E night (unlit)
08 Dec - 00:43:30 10° SW 00:52:51 44° SSE 01:02:08 10° E visible
08 Dec - 02:47:03 10° WSW 02:57:04 65° S 03:06:53 10° E visible
08 Dec - 04:51:46 10° W 05:01:35 58° SSW 05:11:08 10° ESE visible
08 Dec - 06:56:56 10° W 07:05:17 31° SW 07:13:26 10° SSE visible
08 Dec - 22:22:33 10° SSE 22:28:13 17° SE 22:33:52 10° E night (unlit)
09 Dec - 00:21:56 10° SW 00:31:12 42° SSE 00:40:26 10° E visible
09 Dec - 02:25:23 10° WSW 02:35:23 64° S 02:45:13 10° E visible
09 Dec - 04:30:03 10° W 04:39:55 59° SSW 04:49:31 10° ESE visible
09 Dec - 06:35:12 10° W 06:43:41 33° SW 06:51:57 10° SSE visible
09 Dec - 22:01:21 10° SSE 22:06:39 16° SE 22:11:56 10° E night (unlit)
10 Dec - 00:00:22 10° SSW 00:09:34 41° SSE 00:18:44 10° E visible
10 Dec - 02:03:42 10° WSW 02:13:42 64° S 02:23:33 10° E visible
10 Dec - 04:08:21 10° W 04:18:14 60° SSW 04:27:54 10° ESE visible
10 Dec - 06:13:27 10° W 06:22:04 34° SW 06:30:29 10° SSE visible
10 Dec - 08:24:10 10° WSW 08:24:31 10° WSW 08:24:52 10° WSW daylight
10 Dec - 21:40:12 10° SSE 21:45:04 15° SE 21:49:57 10° E night (unlit)
10 Dec - 23:38:48 10° SSW 23:47:55 40° SE 23:57:02 10° E night (unlit)
11 Dec - 01:42:02 10° WSW 01:52:01 63° S 02:01:53 10° E visible
11 Dec - 03:46:39 10° W 03:56:34 61° SSW 04:06:16 10° ESE visible
11 Dec - 05:51:43 10° W 06:00:27 35° SW 06:08:59 10° SSE visible
11 Dec - 08:00:41 10° WSW 08:02:59 11° WSW 08:05:16 10° SW daylight
11 Dec - 21:19:07 10° SSE 21:23:30 14° SE 21:27:55 10° E night (unlit)
11 Dec - 23:17:16 10° SSW 23:26:17 39° SE 23:35:19 10° E night (unlit)
12 Dec - 01:20:23 10° WSW 01:30:20 62° SSE 01:40:13 10° E visible
12 Dec - 03:24:57 10° W 03:34:53 61° SSW 03:44:38 10° ESE visible
12 Dec - 05:29:58 10° W 05:38:50 37° SW 05:47:28 10° SSE visible
12 Dec - 07:38:13 10° WSW 07:41:26 12° WSW 07:44:37 10° SW daylight
12 Dec - 20:58:07 10° SE 21:01:57 13° ESE 21:05:47 10° E night (unlit)
12 Dec - 22:55:43 10° SSW 23:04:39 37° SE 23:13:36 10° E night (unlit)
13 Dec - 00:58:42 10° WSW 01:08:39 62° SSE 01:18:32 10° E visible
13 Dec - 03:03:15 10° W 03:13:13 62° SSW 03:23:00 10° ESE visible
13 Dec - 05:08:15 10° W 05:17:13 38° SW 05:25:58 10° SSE visible
13 Dec - 07:15:59 10° W 07:19:53 13° WSW 07:23:44 10° SSW visible
13 Dec - 20:37:15 10° SE 20:40:23 12° ESE 20:43:32 10° ESE night (unlit)
13 Dec - 22:34:11 10° SSW 22:43:01 36° SE 22:51:54 10° E night (unlit)
14 Dec - 00:37:03 10° WSW 00:46:59 61° SSE 00:56:51 10° E visible
14 Dec - 02:41:34 10° W 02:51:32 63° S 03:01:20 10° ESE visible
14 Dec - 04:46:31 10° W 04:55:35 39° SW 05:04:27 10° SSE visible
14 Dec - 06:53:52 10° W 06:58:20 14° SW 07:02:45 10° SSW visible
14 Dec - 20:16:38 10° SE 20:18:50 11° ESE 20:21:02 10° ESE night (unlit)
14 Dec - 22:12:40 10° SSW 22:21:23 35° SE 22:30:09 10° E night (unlit)
15 Dec - 00:15:24 10° WSW 00:25:18 60° SSE 00:35:10 10° E visible
15 Dec - 02:19:52 10° W 02:29:51 63° S 02:39:42 10° ESE visible
15 Dec - 04:24:48 10° W 04:33:57 40° SSW 04:42:54 10° SSE visible
15 Dec - 06:31:49 10° W 06:36:46 15° SW 06:41:39 10° SSW visible
15 Dec - 21:51:09 10° SSW 21:59:45 34° SE 22:08:26 10° E night (unlit)
15 Dec - 23:53:45 10° WSW 00:03:37 59° SSE 00:13:29 10° E night (unlit)
16 Dec - 01:58:10 10° W 02:08:11 64° S 02:18:03 10° ESE visible
16 Dec - 04:03:04 10° W 04:12:19 42° SSW 04:21:22 10° SSE visible
16 Dec - 06:09:50 10° W 06:15:12 16° SW 06:20:30 10° SSW visible
16 Dec - 21:29:39 10° SSW 21:38:08 32° SE 21:46:41 10° E visible
16 Dec - 23:32:06 10° WSW 23:41:56 59° SSE 23:51:48 10° E night (unlit)
